Location: Reutlingen
(48.4911°N, 9.2587°E)
Time: 16:46:49
(UTC+01:00)

ISS - Pass Details

Date: 17 November 2017
Orbit: 402 x 407 km, 51.6° (Epoch: 22 November)

Event Time Altitude Azimuth Distance (km) Brightness Sun altitude
Exits shadow 06:21:01 10° 236° (SW) 1,454 -1.4 -12.0°
Reaches altitude 10° 06:21:03 10° 235° (SW) 1,451 -1.4 -12.0°
Maximum altitude 06:21:32 10° 226° (SW) 1,435 -1.3 -11.9°
Drops below altitude 10° 06:22:02 10° 218° (SW) 1,450 -1.2 -11.9°
Sets 06:25:46 0° 173° (S) 2,302 0.3 -11.3°
